Location: Cranbrook Institute of Science
(42.5830°N, 83.2450°W)
Time: 20:47:03
(UTC-04:00)

Daily predictions for brighter satellites

Satellite Brightness Start Highest point End
(mag) Time Altitude Azimuth Time Altitude Azimuth Time Altitude Azimuth
SJ-11-01 4.4 21:40:59 10° SSE 21:45:42 90° ESE 21:50:30 10° NNW
Cosmos 1151 Rocket 3.0 21:43:47 10° N 21:48:07 86° E 21:52:28 10° S
PSLV R/B 4.4 21:45:34 10° SE 21:48:13 27° ENE 21:50:52 10° NNE
Cosmos 1939 Rocket 2.8 21:45:13 10° SSE 21:49:07 68° ENE 21:52:58 10° N
Meteor 2-20 Rocket 4.5 21:44:43 10° S 21:50:51 76° E 21:56:59 10° NNE
Cosmos 1633 Rocket 4.4 21:48:04 10° SE 21:51:28 22° E 21:54:52 10° NE
Cosmos 2237 4.4 21:47:20 10° NNW 21:53:03 63° ENE 21:58:42 10° SE
Meteor 1-4 Rocket 4.3 21:51:09 10° NNE 21:53:53 19° ENE 21:56:33 10° ESE
SPOT 5 3.1 21:52:13 10° SSE 21:56:43 54° ENE 22:01:30 10° N
USA 245 4.3 21:59:45 10° ESE 22:01:02 13° ENE 22:02:17 10° NE
Cosmos 2219 3.2 21:56:37 10° SSW 22:02:20 76° ESE 22:08:06 10° NNE
Cosmos 1680 Rocket 3.8 21:57:34 10° NNW 22:02:48 69° WSW 22:08:01 10° S
Cosmos 405 4.0 22:01:01 10° NNW 22:04:32 48° W 22:08:00 10° S
Cosmos 2237 Rocket 3.5 22:00:57 10° N 22:05:48 28° NE 22:10:37 10° ESE
Aureole 3 4.2 22:01:43 10° S 22:08:08 78° E 22:13:10 10° NNE
Cosmos 1805 Rocket 3.7 22:03:55 10° S 22:08:16 57° E 22:12:38 10° NNE
MetOp-B 4.4 22:03:26 10° SSE 22:08:40 58° ENE 22:13:56 10° N
Cosmos 1328 3.8 22:05:36 10° S 22:09:32 88° E 22:13:31 10° N
Cosmos 2333 4.4 22:03:52 10° NNW 22:09:34 64° ENE 22:14:59 11° SE
H-2A R/B 3.8 22:06:22 10° ESE 22:10:13 20° ENE 22:14:07 10° NNE
Cosmos 2322 4.5 22:05:38 10° NW 22:11:09 51° WSW 22:16:38 10° S
DELTA 2 R/B(2) 3.8 22:11:40 10° WSW 22:13:12 32° S 22:14:49 14° ESE
Cosmos 2266 Rocket 4.4 22:07:36 10° SSW 22:13:52 69° W 22:20:02 10° N
Cosmos 1271 Rocket 3.8 22:10:45 10° N 22:14:12 30° ENE 22:17:01 14° SE
Cosmos 1898 Rocket 3.7 22:10:23 10° S 22:15:23 51° ESE 22:20:26 10° NNE
Cosmos 2360 Rocket 3.1 22:10:20 10° NW 22:15:42 45° WSW 22:21:03 10° S
NOSS 3-1 (A) 3.4 22:15:43 10° SSW 22:21:31 66° ESE 22:27:57 10° NE
SPOT 1/Viking Rocket 3.8 22:17:51 12° SE 22:22:26 54° ENE 22:27:28 10° N
Cosmos 1626 4.0 22:21:47 13° ESE 22:23:11 15° E 22:25:27 10° NE
H-2A R/B 3.1 22:20:52 10° S 22:25:13 46° W 22:29:35 10° NNW
Meteor 2-11 Rocket 4.5 22:19:22 10° N 22:25:33 73° E 22:31:29 11° SSE
Cosmos 1703 4.1 22:23:38 15° SSE 22:26:24 33° E 22:29:56 10° NNE
Cosmos 2315 Rocket 4.1 22:20:15 10° N 22:26:28 80° W 22:32:39 10° S
Cosmos 1707 Rocket 3.5 22:22:12 10° N 22:26:36 84° E 22:30:45 11° S
SL-14 R/B 3.3 22:23:32 10° S 22:27:28 66° E 22:31:28 10° NNE
Cosmos 1437 4.5 22:24:33 10° SW 22:27:36 35° WNW 22:30:39 10° N
Cosmos 2150 Rocket 4.1 22:23:12 10° S 22:28:36 70° ESE 22:34:04 10° NNE
OTV 4 1.9 22:27:17 10° SSW 22:29:30 19° SSE 22:29:40 19° SSE
YAOGAN 6 2.5 22:27:34 15° SSE 22:30:31 73° ENE 22:34:06 10° N
Meteor 1-27 4.2 22:24:54 10° N 22:30:37 88° E 22:36:03 11° S
Cosmos 1666 Rocket 3.5 22:26:46 10° S 22:31:09 75° E 22:35:36 10° NNE
Terra 3.2 22:31:05 14° ESE 22:34:08 25° ENE 22:37:59 10° NNE
SL-08 RB Rocket 4.1 22:32:55 17° SE 22:36:06 47° ENE 22:40:26 10° N
Nadezhda 1 Rocket 4.3 22:37:14 10° N 22:43:07 48° ENE 22:47:24 19° SE
ATLAS 2AS CENTAUR R/B 3.3 22:36:58 10° S 22:43:51 43° ESE 22:51:15 10° NE
Cosmos 1470 Rocket 4.1 22:42:21 20° SSE 22:44:57 40° E 22:49:00 10° NNE
Cosmos 2227 Rocket 2.5 22:39:54 10° S 22:45:14 45° ESE 22:50:37 10° NE
Cosmos 1933 Rocket 4.1 22:43:16 19° SSE 22:45:58 40° E 22:50:09 10° NNE
Cosmos 1300 3.4 22:42:36 10° NNW 22:46:21 51° W 22:49:47 12° S
ERBS 2.4 22:44:25 10° SSW 22:47:50 55° SE 22:51:16 10° NE
NOSS 0 Rocket 4.0 22:42:52 10° NNW 22:49:04 75° ENE 22:53:27 20° SSE
Tiangong 1 0.9 22:46:49 10° WSW 22:49:55 78° S 22:52:17 16° E
OAO 2 Rocket 4.1 22:45:55 10° WSW 22:50:43 35° S 22:53:39 20° ESE
Envisat 4.3 22:46:45 10° SSW 22:51:24 36° W 22:56:04 10° NNW
SL-08 R/B 4.5 22:46:41 10° S 22:52:53 75° E 22:59:11 10° N
ATLAS 3B R/B 3.5 22:47:25 10° NNW 22:54:07 43° NE 22:59:20 15° ESE
Cosmos 1745 Rocket 4.0 22:52:10 13° S 22:57:42 70° E 23:03:51 10° NNE
SL-16 R/B 3.3 22:55:45 10° N 23:00:53 33° NE 23:04:25 18° ESE
USA 32 4.0 22:55:41 10° N 23:00:59 87° W 23:04:53 18° S
Lacrosse 4 Rocket 3.0 22:57:22 10° N 23:01:11 27° NE 23:03:42 17° E
Cosmos 2333 Rocket 2.2 22:58:10 10° NNW 23:03:58 84° ENE 23:07:32 24° SSE
BREEZE-M TANK 4.4 22:36:35 10° WSW 23:04:59 77° SSE 23:09:56 10° ENE
CZ-4 R/B 3.8 23:00:54 10° NNE 23:05:51 89° E 23:10:05 14° SSW
NOSS 3-1 (C) 4.4 23:01:24 10° WSW 23:07:10 52° NW 23:13:39 10° NNE
ARGOS 3.3 23:03:30 19° S 23:07:29 73° WSW 23:12:54 10° NNW
Cosmos 1455 2.3 23:04:53 10° N 23:08:40 61° E 23:10:07 34° SSE
Cosmos 1937 Rocket 3.7 23:05:46 10° SSW 23:10:59 71° WNW 23:16:12 10° NNE
Cosmos 2297 Rocket 2.4 23:07:58 19° S 23:11:51 52° ESE 23:17:20 10° NNE
COSMOS 2455 3.4 23:08:27 10° NNW 23:14:20 50° NE 23:17:55 23° ESE
Cosmos 2219 Rocket 2.5 23:09:57 10° NNW 23:15:28 61° WSW 23:18:54 23° S
COSMOS 2428 4.1 23:10:36 10° NW 23:15:30 30° WSW 23:20:00 12° SSW
Cosmos 1726 3.9 23:12:40 10° NNW 23:15:57 28° W 23:18:49 12° SSW
Cosmos 1386 Rocket 4.4 23:13:36 21° S 23:17:48 74° E 23:23:48 10° NNE
Cosmos 990 Rocket 4.0 23:13:20 10° SSW 23:18:28 84° WNW 23:23:39 10° NNE
Cosmos 192 4.3 23:14:30 10° NNW 23:19:26 76° ENE 23:21:44 32° SSE
Cosmos 1862 Rocket 3.5 23:21:21 10° N 23:25:43 85° W 23:27:33 34° S
CARTOSAT-1 3.5 23:25:07 36° SSE 23:26:52 83° ENE 23:31:12 10° N
Meteor 1-4 Rocket 4.4 23:25:56 10° NNW 23:29:06 27° W 23:31:14 16° SW
Cosmos 2181 Rocket 4.3 23:30:28 10° N 23:36:47 58° E 23:39:48 31° SE
Cosmos 1980 4.1 23:32:36 10° NNW 23:38:07 56° WSW 23:40:54 28° S
CZ-4C R/B 4.3 23:35:27 10° NNW 23:41:17 29° NE 23:47:39 10° E
Cosmos 1869 3.6 23:39:36 10° NNW 23:43:36 62° W 23:44:53 39° SSW
Spot 2 4.3 23:38:54 10° NNE 23:44:00 77° ESE 23:46:03 36° S
Cosmos 1269 Rocket 4.0 23:39:07 10° NNW 23:44:27 80° ENE 23:46:29 39° SSE
IGS 5A 3.5 23:43:40 43° S 23:44:58 72° W 23:49:08 10° NNW
NOSS 2-3 (C) 4.3 23:44:46 40° SSE 23:45:46 45° ESE 23:51:03 10° NE
SeaSat 1 3.9 23:43:30 18° E 23:46:04 27° NE 23:50:11 10° N
H-2A R/B 2.5 23:46:30 29° S 23:49:08 60° W 23:54:33 10° NNW
Cosmos 2237 Rocket 2.8 23:44:37 10° NW 23:50:06 48° WSW 23:52:39 29° SSW
FALCON 9 R/B 3.7 23:27:06 10° W 23:50:11 55° SSW 23:54:02 30° SE
Cosmos 1869 Rocket 3.7 23:53:42 49° SE 23:54:30 58° E 23:58:54 10° NNE
